Tracking 35274 objects as of 11-Sep-2026
HD Live streaming from Space Station
objects crossing your sky now

STARLINK-33600

Track STARLINK-33600 now!
10-day predictions
STARLINK-33600 is classified as:


NORAD ID: 62772
Int'l Code: 2025-015Q
Launch date: January 21, 2025
Source: United States (US)
Launch site: AIR FORCE WESTERN TEST RANGE (AFWTR)
Your satellite tracking list
Your tracking list is empty




NASA's NSSDC Master Catalog

Two Line Element Set (TLE):
1 62772U 25015Q   26254.16828495  .00012168  00000-0  40300-3 0  9997
2 62772  53.1597 179.8687 0001068 100.4161 259.6961 15.31719351 92892
Source of the keplerian elements: AFSPC